Weather History for Detroit Metro, MI

Change the Weather History Date:

Wednesday, October 23, 2013

  Actual Average Record
Temperature  
Mean Temperature 41 °F 50 °F  
Max Temperature 49 °F 59 °F 83 °F (1963)
Min Temperature 32 °F 41 °F 22 °F (1969)
Degree Days  
Heating Degree Days 24 15  
Month to date heating degree days 212 265  
Since 1 July heating degree days 322 379  
Cooling Degree Days 0 0  
Month to date cooling degree days 20 7  
Year to date cooling degree days 891 802  
Moisture  
Dew Point 30 °F    
Average Humidity 71    
Maximum Humidity 96    
Minimum Humidity 45    
Precipitation  
Precipitation 0.01 in 0.08 in 2.08 in (1957)
Month to date precipitation 1.41 1.88  
Year to date precipitation 33.59 27.58  
Snow  
Snow T in 0.00 in 0.10 in (1981)
Month to date snowfall T 0.0  
Since 1 July snowfall T 0.0  
Since 1 September snowfall T 0.0  
Snow Depth 0.00 in    
Sea Level Pressure  
Sea Level Pressure 29.89 in    
Wind  
Wind Speed 9 mph (West)    
Max Wind Speed 17 mph    
Max Gust Speed 24 mph    
Visibility 10 miles    
Events Rain    
T = Trace of Precipitation, MM = Missing Value Source: NWS Daily Summary

Daily Weather History Graph

Daily Weather History Graph

Search for Another Location

Airport:

Trip Planner

Search our weather history database for the weather conditions in past years. The results will help you decide how hot, cold, wet, or windy it might be!

Date:

Astronomy

Oct. 23, 2013 Rise Set
Actual Time 7:55 AM EDT 6:38 PM EDT
Civil Twilight 7:27 AM EDT 7:07 PM EDT
Nautical Twilight 6:54 AM EDT 7:40 PM EDT
Astronomical Twilight 6:21 AM EDT 8:12 PM EDT
Moon 10:06 PM EDT (10/23) 12:14 PM EDT (10/23)
Length of Visible Light 11h 40m
Length of Day
10h 43m
Waning Gibbous, 79% of the Moon is Illuminated
Oct 23
Waning Gibbous
Oct 26
Last Quarter
Nov 3
New
Nov 10
First Quarter
Nov 17
Full

Hourly Weather History & Observations

Time (EDT) Temp. Windchill Dew Point Humidity Pressure Visibility Wind Dir Wind Speed Gust Speed Precip Events Conditions
12:53 AM 37.9 °F 32.1 °F 33.1 °F 83% 29.89 in 10.0 mi SSW 8.1 mph - N/A   Overcast
1:53 AM 37.0 °F 31.0 °F 33.1 °F 86% 29.88 in 10.0 mi SW 8.1 mph - N/A   Overcast
2:53 AM 36.0 °F 32.1 °F 33.1 °F 89% 29.86 in 10.0 mi WSW 4.6 mph - N/A   Overcast
3:53 AM 35.1 °F 31.0 °F 32.0 °F 89% 29.84 in 9.0 mi West 4.6 mph - N/A   Mostly Cloudy
4:53 AM 34.0 °F 31.0 °F 32.0 °F 92% 29.83 in 9.0 mi West 3.5 mph - N/A   Mostly Cloudy
5:53 AM 33.1 °F 26.9 °F 30.9 °F 92% 29.83 in 9.0 mi WNW 6.9 mph - N/A   Scattered Clouds
6:53 AM 33.1 °F 26.9 °F 30.9 °F 92% 29.84 in 10.0 mi WNW 6.9 mph - N/A   Scattered Clouds
7:53 AM 32.0 °F 27.5 °F 30.0 °F 92% 29.85 in 10.0 mi WNW 4.6 mph - N/A   Scattered Clouds
8:53 AM 35.1 °F 30.1 °F 32.0 °F 89% 29.87 in 9.0 mi NW 5.8 mph - N/A   Scattered Clouds
9:53 AM 39.0 °F 33.4 °F 34.0 °F 82% 29.88 in 10.0 mi WNW 8.1 mph - N/A   Scattered Clouds
10:53 AM 43.0 °F 39.5 °F 33.1 °F 68% 29.88 in 10.0 mi NNW 5.8 mph - N/A   Mostly Cloudy
11:53 AM 45.0 °F 40.1 °F 30.0 °F 56% 29.88 in 10.0 mi WNW 9.2 mph - N/A   Mostly Cloudy
12:53 PM 44.1 °F 37.7 °F 30.0 °F 58% 29.88 in 10.0 mi WNW 12.7 mph - N/A   Mostly Cloudy
1:53 PM 48.0 °F - 28.9 °F 48% 29.87 in 10.0 mi WNW 11.5 mph 20.7 mph N/A   Mostly Cloudy
2:53 PM 45.0 °F 38.2 °F 24.1 °F 44% 29.86 in 10.0 mi WNW 15.0 mph - 0.00 in Rain Light Rain
3:53 PM 46.0 °F 41.0 °F 24.1 °F 42% 29.87 in 10.0 mi West 10.4 mph - 0.00 in   Mostly Cloudy
4:53 PM 45.0 °F 38.9 °F 24.1 °F 44% 29.88 in 10.0 mi West 12.7 mph - N/A   Mostly Cloudy
5:53 PM 44.1 °F 38.6 °F 26.1 °F 49% 29.90 in 10.0 mi West 10.4 mph - N/A   Mostly Cloudy
6:53 PM 43.0 °F 36.4 °F 27.0 °F 53% 29.92 in 10.0 mi West 12.7 mph - N/A   Mostly Cloudy
7:53 PM 41.0 °F 34.7 °F 28.9 °F 62% 29.94 in 10.0 mi West 10.4 mph - N/A   Mostly Cloudy
8:53 PM 39.9 °F 33.4 °F 30.9 °F 70% 29.94 in 10.0 mi SW 10.4 mph - N/A   Overcast
9:04 PM 39.2 °F 33.0 °F 32.0 °F 75% 29.93 in 10.0 mi WSW 9.2 mph - 0.00 in   Light Ice Pellets
9:33 PM 39.2 °F 32.5 °F 33.8 °F 81% 29.93 in 10.0 mi West 10.4 mph - 0.01 in Rain Light Rain
9:53 PM 37.0 °F 31.0 °F 30.9 °F 79% 29.95 in 10.0 mi WSW 8.1 mph - 0.01 in   Overcast
10:53 PM 37.9 °F 31.5 °F 34.0 °F 86% 29.95 in 10.0 mi WSW 9.2 mph - N/A   Mostly Cloudy
11:53 PM 37.0 °F 30.4 °F 33.1 °F 86% 29.95 in 10.0 mi WSW 9.2 mph - N/A   Mostly Cloudy